Content
SEND FEEDBACK

Daily
Averages
Monthly
Summary
United States of America

SUN VALLEY, CALIFORNIA


Home > North America > United States > California
Elevation: 980 feet     Latitude: 34 15N     Longitude: 118 24W

WEATHER
 
SELECT A DAY
Number of Records: 178,336;   Date Range: 1/1/95 - 7/7/14
 
SHARE

PRINT THIS DATA

[ ← Previous Day ]
WEATHER ALMANAC - JANUARY 31, 2013
[ Next Day → ]
[ °C ]   °F
Weather ElementAverageHighLow
Temperature59.5 °F78.1 °F (2:53 pm)44.1 °F (5:53 am)
Dewpoint37 °F41 °F (7:53 pm)34 °F (2:53 pm)
Humidity47.1 %76 % (6:53 am)20 % (2:53 pm)
Barometer30.13 in30.20 in (1:53 am)30.06 in (3:53 pm)
Wind Speed1.7 mph6.9 mph (3:53 pm)
Weather ElementAverage
Visibility10 mi
Wind DirectionENE (83.9 °)

Weather ElementTotal
Precipitation---
Heating Degree Days3.9 (Base 65)
Growing Degree Days11.1 (Base 50)
Averaged from 23 records on January 31, 2013
WEATHER CONDITIONS BREAKOUT
WIND DIRECTION BREAKOUT
WEATHER BY HOUR - JANUARY 31, 2013
[ °C ]   °F
Local TimeTemperatureDewpointHumidityBarometerVisibilityWind DirectionWind SpeedGust SpeedPrecipitationEventsConditions
1:53 AM46.9 °F37.0 °F68 %30.20 in10.0 miCalmClear
2:53 AM48.0 °F37.0 °F66 %30.18 in10.0 miCalmClear
3:53 AM46.0 °F37.0 °F71 %30.17 in10.0 miCalmClear
4:53 AM46.0 °F37.0 °F71 %30.16 in10.0 miCalmClear
5:53 AM44.1 °F36.0 °F73 %30.16 in10.0 miNorth (360°)3.5 mphClear
6:53 AM44.1 °F37.0 °F76 %30.17 in10.0 miCalmClear
7:53 AM48.9 °F39.0 °F69 %30.17 in10.0 miCalmClear
8:53 AM55.0 °F37.9 °F53 %30.19 in10.0 miCalmClear
9:53 AM62.1 °F37.0 °F39 %30.20 in10.0 miCalmClear
10:53 AM66.0 °F36.0 °F33 %30.19 in10.0 miCalmClear
11:53 AM70.0 °F35.1 °F28 %30.16 in10.0 miCalmClear
12:53 PM73.0 °F35.1 °F25 %30.12 in10.0 miCalmClear
1:53 PM75.0 °F36.0 °F24 %30.09 in10.0 miWSW (240°)4.6 mphClear
2:53 PM78.1 °F34.0 °F20 %30.07 in10.0 miWNW (290°)3.5 mphClear
3:53 PM75.0 °F37.9 °F26 %30.06 in10.0 miSouth (180°)6.9 mphClear
4:53 PM71.1 °F37.9 °F30 %30.07 in10.0 miSouth (170°)5.8 mphClear
5:53 PM66.9 °F37.9 °F34 %30.09 in10.0 miESE (120°)6.9 mphClear
6:53 PM64.9 °F39.0 °F39 %30.09 in10.0 miCalmClear
7:53 PM62.1 °F41.0 °F46 %30.10 in10.0 miNW (310°)4.6 mphClear
8:53 PM60.1 °F37.0 °F42 %30.10 in10.0 miCalmClear
9:53 PM55.9 °F37.0 °F49 %30.10 in10.0 miCalmClear
10:53 PM55.0 °F37.9 °F53 %30.10 in10.0 miCalmClear
11:53 PM54.0 °F35.1 °F49 %30.10 in10.0 miWest (260°)3.5 mphClear
Hourly data recorded from KBUR, located miles away from Sun Valley, California







STORIES FROM OUR PARTNERS